Time,TemperatureF,DewpointF,PressureIn,WindDirection,WindDirectionDegrees,WindSpeedMPH,WindSpeedGustMPH,Humidity,HourlyPrecipIn,Conditions,Clouds,dailyrainin,SoftwareType,DateUTC
2013-02-14 00:02:00,44.0,-99.9,-100.00,North,0,0.0,0.0,-999,-99.99,,,-99.99,,2013-02-14 05:02:00,
2013-02-14 00:12:00,44.0,-99.9,-100.00,North,0,0.0,1.0,-999,-99.99,,,-99.99,,2013-02-14 05:12:00,
2013-02-14 00:22:00,44.0,-99.9,-100.00,North,0,0.0,1.0,-999,-99.99,,,-99.99,,2013-02-14 05:22:00,
2013-02-14 00:32:00,43.0,-99.9,-100.00,North,0,0.0,0.0,-999,-99.99,,,-99.99,,2013-02-14 05:32:00,
2013-02-14 00:42:00,43.0,-99.9,-100.00,North,0,0.0,4.0,-999,-99.99,,,-99.99,,2013-02-14 05:42:00,
2013-02-14 00:52:00,42.0,-99.9,-100.00,North,0,0.0,4.0,-999,-99.99,,,-99.99,,2013-02-14 05:52:00,
2013-02-14 01:02:00,42.0,-99.9,-100.00,North,0,0.0,0.0,-999,-99.99,,,-99.99,,2013-02-14 06:02:00,
2013-02-14 01:11:00,42.0,-99.9,-100.00,North,0,0.0,6.0,-999,-99.99,,,-99.99,,2013-02-14 06:11:00,
2013-02-14 01:22:00,42.0,-99.9,-100.00,North,0,5.0,14.0,-999,-99.99,,,-99.99,,2013-02-14 06:22:00,
2013-02-14 01:32:00,42.0,-99.9,-100.00,North,0,0.0,14.0,-999,-99.99,,,-99.99,,2013-02-14 06:32:00,
2013-02-14 01:42:00,41.0,-99.9,-100.00,North,0,1.0,6.0,-999,-99.99,,,-99.99,,2013-02-14 06:42:00,
2013-02-14 01:52:00,41.0,-99.9,-100.00,North,0,0.0,7.0,-999,-99.99,,,-99.99,,2013-02-14 06:52:00,
2013-02-14 02:02:00,41.0,-99.9,-100.00,North,0,0.0,4.0,-999,-99.99,,,-99.99,,2013-02-14 07:02:00,
2013-02-14 02:11:00,41.0,-99.9,-100.00,North,0,0.0,6.0,-999,-99.99,,,-99.99,,2013-02-14 07:11:00,
2013-02-14 02:22:00,38.0,-99.9,-100.00,NNE,20,14.0,15.0,-999,-99.99,,,-99.99,,2013-02-14 07:22:00,
2013-02-14 02:32:00,40.0,-99.9,-100.00,North,0,0.0,13.0,-999,-99.99,,,-99.99,,2013-02-14 07:32:00,
2013-02-14 02:42:00,37.0,-99.9,-100.00,SW,220,4.0,12.0,-999,-99.99,,,-99.99,,2013-02-14 07:42:00,
2013-02-14 02:52:00,37.0,-99.9,-100.00,North,0,1.0,4.0,-999,-99.99,,,-99.99,,2013-02-14 07:52:00,
2013-02-14 03:01:00,37.0,-99.9,-100.00,SSW,210,2.0,4.0,-999,-99.99,,,-99.99,,2013-02-14 08:01:00,
2013-02-14 03:11:00,38.0,-99.9,-100.00,North,0,0.0,3.0,-999,-99.99,,,-99.99,,2013-02-14 08:11:00,
2013-02-14 03:22:00,36.0,-99.9,-100.00,North,0,0.0,1.0,-999,-99.99,,,-99.99,,2013-02-14 08:22:00,
2013-02-14 03:32:00,36.0,-99.9,-100.00,North,0,0.0,3.0,-999,-99.99,,,-99.99,,2013-02-14 08:32:00,
2013-02-14 03:43:00,37.0,-99.9,-100.00,SSW,205,2.0,3.0,-999,-99.99,,,-99.99,,2013-02-14 08:43:00,
2013-02-14 03:52:00,37.0,-99.9,-100.00,South,190,1.0,3.0,-999,-99.99,,,-99.99,,2013-02-14 08:52:00,
2013-02-14 04:02:00,37.0,-99.9,-100.00,North,0,0.0,1.0,-999,-99.99,,,-99.99,,2013-02-14 09:02:00,
2013-02-14 04:12:00,37.0,-99.9,-100.00,North,0,0.0,4.0,-999,-99.99,,,-99.99,,2013-02-14 09:12:00,
2013-02-14 04:22:00,38.0,-99.9,-100.00,North,0,0.0,1.0,-999,-99.99,,,-99.99,,2013-02-14 09:22:00,
2013-02-14 04:32:00,37.0,-99.9,-100.00,North,0,0.0,4.0,-999,-99.99,,,-99.99,,2013-02-14 09:32:00,
2013-02-14 04:42:00,37.0,-99.9,-100.00,North,0,0.0,2.0,-999,-99.99,,,-99.99,,2013-02-14 09:42:00,
2013-02-14 04:52:00,36.0,-99.9,-100.00,North,0,0.0,0.0,-999,-99.99,,,-99.99,,2013-02-14 09:52:00,
2013-02-14 05:02:00,36.0,-99.9,-100.00,North,0,0.0,0.0,-999,-99.99,,,-99.99,,2013-02-14 10:02:00,
2013-02-14 05:11:00,35.0,-99.9,-100.00,North,0,0.0,0.0,-999,-99.99,,,-99.99,,2013-02-14 10:11:00,
2013-02-14 05:22:00,35.0,-99.9,-100.00,North,0,0.0,0.0,-999,-99.99,,,-99.99,,2013-02-14 10:22:00,
2013-02-14 05:32:00,37.0,-99.9,-100.00,North,0,0.0,0.0,-999,-99.99,,,-99.99,,2013-02-14 10:32:00,
2013-02-14 05:42:00,38.0,-99.9,-100.00,North,0,0.0,6.0,-999,-99.99,,,-99.99,,2013-02-14 10:42:00,
2013-02-14 05:52:00,38.0,-99.9,-100.00,North,0,0.0,6.0,-999,-99.99,,,-99.99,,2013-02-14 10:52:00,
2013-02-14 06:02:00,38.0,-99.9,-100.00,North,0,1.0,6.0,-999,-99.99,,,-99.99,,2013-02-14 11:02:00,
2013-02-14 06:12:00,38.0,-99.9,-100.00,North,0,4.0,8.0,-999,-99.99,,,-99.99,,2013-02-14 11:12:00,
2013-02-14 06:22:00,38.0,-99.9,-100.00,North,0,1.0,8.0,-999,-99.99,,,-99.99,,2013-02-14 11:22:00,
2013-02-14 06:32:00,38.0,-99.9,-100.00,North,0,4.0,9.0,-999,-99.99,,,-99.99,,2013-02-14 11:32:00,
2013-02-14 06:42:00,38.0,-99.9,-100.00,NNE,20,4.0,6.0,-999,-99.99,,,-99.99,,2013-02-14 11:42:00,
2013-02-14 06:52:00,38.0,-99.9,-100.00,North,0,1.0,6.0,-999,-99.99,,,-99.99,,2013-02-14 11:52:00,
2013-02-14 07:02:00,38.0,-99.9,-100.00,North,0,1.0,4.0,-999,-99.99,,,-99.99,,2013-02-14 12:02:00,
2013-02-14 07:12:00,37.0,-99.9,-100.00,North,0,0.0,1.0,-999,-99.99,,,-99.99,,2013-02-14 12:12:00,
2013-02-14 07:22:00,37.0,-99.9,-100.00,North,0,0.0,1.0,-999,-99.99,,,-99.99,,2013-02-14 12:22:00,
2013-02-14 07:32:00,36.0,-99.9,-100.00,North,0,0.0,3.0,-999,-99.99,,,-99.99,,2013-02-14 12:32:00,
2013-02-14 07:42:00,36.0,-99.9,-100.00,North,0,0.0,3.0,-999,-99.99,,,-99.99,,2013-02-14 12:42:00,
2013-02-14 07:53:00,35.0,-99.9,-100.00,North,0,0.0,1.0,-999,-99.99,,,-99.99,,2013-02-14 12:53:00,
2013-02-14 08:02:00,36.0,-99.9,-100.00,North,0,0.0,2.0,-999,-99.99,,,-99.99,,2013-02-14 13:02:00,
2013-02-14 08:11:00,35.0,-99.9,-100.00,North,0,1.0,6.0,-999,-99.99,,,-99.99,,2013-02-14 13:11:00,
2013-02-14 08:21:00,35.0,-99.9,-100.00,North,0,0.0,1.0,-999,-99.99,,,-99.99,,2013-02-14 13:21:00,
2013-02-14 08:32:00,35.0,-99.9,-100.00,North,0,0.0,1.0,-999,-99.99,,,-99.99,,2013-02-14 13:32:00,
2013-02-14 08:42:00,36.0,-99.9,-100.00,NNE,20,1.0,1.0,-999,-99.99,,,-99.99,,2013-02-14 13:42:00,
2013-02-14 08:52:00,36.0,-99.9,-100.00,North,0,1.0,2.0,-999,-99.99,,,-99.99,,2013-02-14 13:52:00,
2013-02-14 09:01:00,38.0,-99.9,-100.00,North,0,1.0,3.0,-999,-99.99,,,-99.99,,2013-02-14 14:01:00,
2013-02-14 09:11:00,39.0,-99.9,-100.00,North,0,1.0,5.0,-999,-99.99,,,-99.99,,2013-02-14 14:11:00,
2013-02-14 09:22:00,40.0,-99.9,-100.00,North,0,0.0,1.0,-999,-99.99,,,-99.99,,2013-02-14 14:22:00,
2013-02-14 09:32:00,40.0,-99.9,-100.00,North,0,0.0,0.0,-999,-99.99,,,-99.99,,2013-02-14 14:32:00,
2013-02-14 09:42:00,40.0,-99.9,-100.00,North,0,0.0,1.0,-999,-99.99,,,-99.99,,2013-02-14 14:42:00,
2013-02-14 09:52:00,40.0,-99.9,-100.00,North,0,0.0,1.0,-999,-99.99,,,-99.99,,2013-02-14 14:52:00,
2013-02-14 10:02:00,41.0,-99.9,-100.00,North,0,0.0,4.0,-999,-99.99,,,-99.99,,2013-02-14 15:02:00,
2013-02-14 10:11:00,42.0,-99.9,-100.00,North,0,0.0,4.0,-999,-99.99,,,-99.99,,2013-02-14 15:11:00,
2013-02-14 10:22:00,43.0,-99.9,-100.00,North,0,0.0,2.0,-999,-99.99,,,-99.99,,2013-02-14 15:22:00,
2013-02-14 10:32:00,44.0,-99.9,-100.00,North,10,2.0,12.0,-999,-99.99,,,-99.99,,2013-02-14 15:32:00,
2013-02-14 10:42:00,44.0,-99.9,-100.00,North,10,6.0,14.0,-999,-99.99,,,-99.99,,2013-02-14 15:42:00,
2013-02-14 10:52:00,44.0,-99.9,-100.00,NNE,25,4.0,14.0,-999,-99.99,,,-99.99,,2013-02-14 15:52:00,
2013-02-14 11:02:00,44.0,-99.9,-100.00,NNE,20,4.0,16.0,-999,-99.99,,,-99.99,,2013-02-14 16:02:00,
2013-02-14 11:12:00,45.0,-99.9,-100.00,NNE,30,5.0,7.0,-999,-99.99,,,-99.99,,2013-02-14 16:12:00,
2013-02-14 11:22:00,45.0,-99.9,-100.00,NE,40,4.0,14.0,-999,-99.99,,,-99.99,,2013-02-14 16:22:00,
2013-02-14 11:32:00,45.0,-99.9,-100.00,NE,40,4.0,14.0,-999,-99.99,,,-99.99,,2013-02-14 16:32:00,
2013-02-14 11:42:00,46.0,-99.9,-100.00,North,0,0.0,2.0,-999,-99.99,,,-99.99,,2013-02-14 16:42:00,
2013-02-14 11:52:00,46.0,-99.9,-100.00,North,0,0.0,2.0,-999,-99.99,,,-99.99,,2013-02-14 16:52:00,
2013-02-14 12:01:00,47.0,-99.9,-100.00,South,175,4.0,7.0,-999,-99.99,,,-99.99,,2013-02-14 17:01:00,
2013-02-14 12:11:00,47.0,-99.9,-100.00,North,0,0.0,6.0,-999,-99.99,,,-99.99,,2013-02-14 17:11:00,
2013-02-14 12:22:00,48.0,-99.9,-100.00,SSE,150,4.0,11.0,-999,-99.99,,,-99.99,,2013-02-14 17:22:00,
2013-02-14 12:32:00,47.0,-99.9,-100.00,SE,140,5.0,10.0,-999,-99.99,,,-99.99,,2013-02-14 17:32:00,
2013-02-14 12:42:00,48.0,-99.9,-100.00,North,0,9.0,18.0,-999,-99.99,,,-99.99,,2013-02-14 17:42:00,
2013-02-14 12:52:00,48.0,-99.9,-100.00,North,0,9.0,18.0,-999,-99.99,,,-99.99,,2013-02-14 17:52:00,
2013-02-14 13:02:00,49.0,-99.9,-100.00,North,0,4.0,12.0,-999,-99.99,,,-99.99,,2013-02-14 18:02:00,
2013-02-14 13:11:00,49.0,-99.9,-100.00,South,170,9.0,13.0,-999,-99.99,,,-99.99,,2013-02-14 18:11:00,
2013-02-14 13:23:00,50.0,-99.9,-100.00,South,180,7.0,11.0,-999,-99.99,,,-99.99,,2013-02-14 18:23:00,
2013-02-14 13:32:00,50.0,-99.9,-100.00,SE,135,5.0,13.0,-999,-99.99,,,-99.99,,2013-02-14 18:32:00,
2013-02-14 13:42:00,49.0,-99.9,-100.00,SSW,200,6.0,14.0,-999,-99.99,,,-99.99,,2013-02-14 18:42:00,
2013-02-14 13:52:00,51.0,-99.9,-100.00,North,0,3.0,12.0,-999,-99.99,,,-99.99,,2013-02-14 18:52:00,
2013-02-14 14:02:00,51.0,-99.9,-100.00,North,0,2.0,14.0,-999,-99.99,,,-99.99,,2013-02-14 19:02:00,
2013-02-14 14:11:00,51.0,-99.9,-100.00,North,0,2.0,14.0,-999,-99.99,,,-99.99,,2013-02-14 19:11:00,
2013-02-14 14:22:00,52.0,-99.9,-100.00,South,180,6.0,9.0,-999,-99.99,,,-99.99,,2013-02-14 19:22:00,
2013-02-14 14:32:00,51.0,-99.9,-100.00,SW,220,5.0,10.0,-999,-99.99,,,-99.99,,2013-02-14 19:32:00,
2013-02-14 14:42:00,51.0,-99.9,-100.00,SSW,200,8.0,12.0,-999,-99.99,,,-99.99,,2013-02-14 19:42:00,
2013-02-14 14:52:00,52.0,-99.9,-100.00,North,0,5.0,11.0,-999,-99.99,,,-99.99,,2013-02-14 19:52:00,
2013-02-14 15:02:00,52.0,-99.9,-100.00,North,0,1.0,9.0,-999,-99.99,,,-99.99,,2013-02-14 20:02:00,
2013-02-14 15:11:00,52.0,-99.9,-100.00,North,0,4.0,15.0,-999,-99.99,,,-99.99,,2013-02-14 20:11:00,
2013-02-14 15:22:00,52.0,-99.9,-100.00,North,0,1.0,11.0,-999,-99.99,,,-99.99,,2013-02-14 20:22:00,
2013-02-14 15:32:00,52.0,-99.9,-100.00,SSW,200,8.0,12.0,-999,-99.99,,,-99.99,,2013-02-14 20:32:00,
2013-02-14 15:42:00,52.0,-99.9,-100.00,North,0,0.0,14.0,-999,-99.99,,,-99.99,,2013-02-14 20:42:00,
2013-02-14 15:52:00,52.0,-99.9,-100.00,North,0,6.0,17.0,-999,-99.99,,,-99.99,,2013-02-14 20:52:00,
2013-02-14 16:02:00,52.0,-99.9,-100.00,North,0,0.0,7.0,-999,-99.99,,,-99.99,,2013-02-14 21:02:00,
2013-02-14 16:11:00,53.0,-99.9,-100.00,SSW,200,8.0,17.0,-999,-99.99,,,-99.99,,2013-02-14 21:11:00,
2013-02-14 16:22:00,53.0,-99.9,-100.00,South,185,4.0,11.0,-999,-99.99,,,-99.99,,2013-02-14 21:22:00,
2013-02-14 16:32:00,53.0,-99.9,-100.00,SSW,200,6.0,14.0,-999,-99.99,,,-99.99,,2013-02-14 21:32:00,
2013-02-14 16:42:00,53.0,-99.9,-100.00,SSW,205,7.0,13.0,-999,-99.99,,,-99.99,,2013-02-14 21:42:00,
2013-02-14 16:52:00,53.0,-99.9,-100.00,North,0,4.0,9.0,-999,-99.99,,,-99.99,,2013-02-14 21:52:00,
2013-02-14 17:02:00,53.0,-99.9,-100.00,SSW,205,6.0,13.0,-999,-99.99,,,-99.99,,2013-02-14 22:02:00,
2013-02-14 17:11:00,53.0,-99.9,-100.00,SW,215,4.0,11.0,-999,-99.99,,,-99.99,,2013-02-14 22:11:00,
2013-02-14 17:22:00,53.0,-99.9,-100.00,North,0,1.0,7.0,-999,-99.99,,,-99.99,,2013-02-14 22:22:00,
2013-02-14 17:32:00,53.0,-99.9,-100.00,North,0,1.0,11.0,-999,-99.99,,,-99.99,,2013-02-14 22:32:00,
2013-02-14 17:42:00,53.0,-99.9,-100.00,North,0,2.0,11.0,-999,-99.99,,,-99.99,,2013-02-14 22:42:00,
2013-02-14 17:52:00,53.0,-99.9,-100.00,North,0,1.0,8.0,-999,-99.99,,,-99.99,,2013-02-14 22:52:00,
2013-02-14 18:01:00,53.0,-99.9,-100.00,North,0,2.0,8.0,-999,-99.99,,,-99.99,,2013-02-14 23:01:00,
2013-02-14 18:11:00,53.0,-99.9,-100.00,North,0,2.0,6.0,-999,-99.99,,,-99.99,,2013-02-14 23:11:00,
2013-02-14 18:22:00,52.0,-99.9,-100.00,SSW,205,4.0,8.0,-999,-99.99,,,-99.99,,2013-02-14 23:22:00,
2013-02-14 18:32:00,51.0,-99.9,-100.00,North,0,1.0,7.0,-999,-99.99,,,-99.99,,2013-02-14 23:32:00,
2013-02-14 18:42:00,51.0,-99.9,-100.00,North,0,1.0,4.0,-999,-99.99,,,-99.99,,2013-02-14 23:42:00,
2013-02-14 18:52:00,50.0,-99.9,-100.00,North,0,1.0,4.0,-999,-99.99,,,-99.99,,2013-02-14 23:52:00,
2013-02-14 19:02:00,50.0,-99.9,-100.00,North,0,0.0,3.0,-999,-99.99,,,-99.99,,2013-02-15 00:02:00,
2013-02-14 19:11:00,50.0,-99.9,-100.00,North,0,1.0,4.0,-999,-99.99,,,-99.99,,2013-02-15 00:11:00,
2013-02-14 19:22:00,49.0,-99.9,-100.00,North,0,0.0,3.0,-999,-99.99,,,-99.99,,2013-02-15 00:22:00,
2013-02-14 19:32:00,47.0,-99.9,-100.00,North,0,3.0,9.0,-999,-99.99,,,-99.99,,2013-02-15 00:32:00,
2013-02-14 19:42:00,47.0,-99.9,-100.00,North,0,4.0,10.0,-999,-99.99,,,-99.99,,2013-02-15 00:42:00,
2013-02-14 19:52:00,47.0,-99.9,-100.00,North,0,4.0,10.0,-999,-99.99,,,-99.99,,2013-02-15 00:52:00,
2013-02-14 20:02:00,46.0,-99.9,-100.00,SSE,165,3.0,9.0,-999,-99.99,,,-99.99,,2013-02-15 01:02:00,
2013-02-14 20:11:00,48.0,48.0,-100.00,South,190,4.0,6.0,99,-99.99,,,-99.99,,2013-02-15 01:11:00,
2013-02-14 20:22:00,47.0,-99.9,-100.00,South,175,5.0,7.0,-999,-99.99,,,-99.99,,2013-02-15 01:22:00,
2013-02-14 20:32:00,47.0,-99.9,-100.00,South,175,5.0,7.0,-999,-99.99,,,-99.99,,2013-02-15 01:32:00,
2013-02-14 20:42:00,47.0,-99.9,-100.00,South,180,7.0,11.0,-999,-99.99,,,-99.99,,2013-02-15 01:42:00,
2013-02-14 20:52:00,46.0,-99.9,-100.00,South,175,6.0,9.0,-999,-99.99,,,-99.99,,2013-02-15 01:52:00,
2013-02-14 21:01:00,45.0,-99.9,-100.00,SSW,195,4.0,9.0,-999,-99.99,,,-99.99,,2013-02-15 02:01:00,
2013-02-14 21:11:00,45.0,-99.9,-100.00,South,190,4.0,7.0,-999,-99.99,,,-99.99,,2013-02-15 02:11:00,
2013-02-14 21:21:00,45.0,-99.9,-100.00,SSE,160,4.0,5.0,-999,-99.99,,,-99.99,,2013-02-15 02:21:00,
2013-02-14 21:32:00,43.0,-99.9,-100.00,SSE,150,3.0,11.0,-999,-99.99,,,-99.99,,2013-02-15 02:32:00,
2013-02-14 21:42:00,45.0,-99.9,-100.00,South,185,3.0,6.0,-999,-99.99,,,-99.99,,2013-02-15 02:42:00,
2013-02-14 21:52:00,45.0,-99.9,-100.00,South,175,4.0,5.0,-999,-99.99,,,-99.99,,2013-02-15 02:52:00,
2013-02-14 22:02:00,44.0,-99.9,-100.00,SSE,165,3.0,10.0,-999,-99.99,,,-99.99,,2013-02-15 03:02:00,
2013-02-14 22:11:00,42.0,-99.9,-100.00,SSE,155,3.0,12.0,-999,-99.99,,,-99.99,,2013-02-15 03:11:00,
2013-02-14 22:22:00,44.0,-99.9,-100.00,South,180,5.0,7.0,-999,-99.99,,,-99.99,,2013-02-15 03:22:00,
2013-02-14 22:32:00,45.0,-99.9,-100.00,South,180,5.0,7.0,-999,-99.99,,,-99.99,,2013-02-15 03:32:00,
2013-02-14 22:42:00,44.0,-99.9,-100.00,SSE,160,4.0,6.0,-999,-99.99,,,-99.99,,2013-02-15 03:42:00,
2013-02-14 22:52:00,43.0,-99.9,-100.00,South,170,6.0,7.0,-999,-99.99,,,-99.99,,2013-02-15 03:52:00,
2013-02-14 23:02:00,43.0,-99.9,-100.00,South,180,6.0,8.0,-999,-99.99,,,-99.99,,2013-02-15 04:02:00,
2013-02-14 23:11:00,44.0,-99.9,-100.00,South,185,6.0,9.0,-999,-99.99,,,-99.99,,2013-02-15 04:11:00,
2013-02-14 23:22:00,43.0,-99.9,-100.00,South,190,4.0,6.0,-999,-99.99,,,-99.99,,2013-02-15 04:22:00,
2013-02-14 23:32:00,42.0,-99.9,-100.00,South,185,4.0,6.0,-999,-99.99,,,-99.99,,2013-02-15 04:32:00,
2013-02-14 23:42:00,42.0,-99.9,-100.00,SSW,205,3.0,5.0,-999,-99.99,,,-99.99,,2013-02-15 04:42:00,
2013-02-14 23:52:00,42.0,-99.9,-100.00,SSW,200,4.0,6.0,-999,-99.99,,,-99.99,,2013-02-15 04:52:00,